| time (UTC) | temp F | wind direction | speed MPH | gust MPH | rain 1hr in | rain 24hr in | rain mn in | humidity % | barometer mb |
| 20260504120301 | 70 | 80 | 5.0 | 0.0 | 0.00 | 0.00 | 0.00 | 38 | 1015.0 |
| 20260504110302 | 68 | 2.0 | 0.0 | 0.00 | 0.00 | 0.00 | 35 | 1016.0 | |
| 20260504100302 | 68 | 1.0 | 0.0 | 0.00 | 0.00 | 0.00 | 38 | 1016.0 | |
| 20260504081802 | 64 | 260 | 5.0 | 0.0 | 0.00 | 0.00 | 0.00 | 43 | 1017.0 |
| 20260504080301 | 64 | 260 | 5.0 | 0.0 | 0.00 | 0.00 | 0.00 | 43 | 1017.0 |
| 20260504070303 | 61 | 260 | 3.0 | 0.0 | 0.00 | 0.00 | 0.00 | 48 | 1017.0 |
| 20260504050312 | 48 | 290 | 7.0 | 0.0 | 0.00 | 0.00 | 0.00 | 71 | 1017.0 |
| 20260504044802 | 45 | 280 | 5.0 | 0.0 | 0.00 | 0.00 | 0.00 | 76 | 1017.0 |
| 20260504043302 | 45 | 280 | 5.0 | 0.0 | 0.00 | 0.00 | 0.00 | 76 | 1017.0 |
| 20260504041802 | 43 | 260 | 5.0 | 0.0 | 0.00 | 0.00 | 0.00 | 81 | 1017.0 |
| 20260504040302 | 43 | 260 | 5.0 | 0.0 | 0.00 | 0.00 | 0.00 | 81 | 1017.0 |
| 20260504034802 | 39 | 270 | 7.0 | 0.0 | 0.00 | 0.00 | 0.00 | 93 | 1017.0 |
| 20260504033302 | 39 | 270 | 7.0 | 0.0 | 0.00 | 0.00 | 0.00 | 93 | 1017.0 |
| 20260504031802 | 39 | 270 | 8.0 | 0.0 | 0.00 | 0.00 | 0.00 | 93 | 1017.0 |
| 20260504030416 | 39 | 270 | 8.0 | 0.0 | 0.00 | 0.00 | 0.00 | 93 | 1017.0 |
| 20260504024802 | 39 | 270 | 8.0 | 0.0 | 0.00 | 0.00 | 0.00 | 87 | 1017.0 |
| 20260504023302 | 39 | 270 | 8.0 | 0.0 | 0.00 | 0.00 | 0.00 | 87 | 1017.0 |
| 20260504021801 | 39 | 280 | 8.0 | 0.0 | 0.00 | 0.00 | 0.00 | 87 | 1018.0 |
| 20260504020302 | 39 | 280 | 8.0 | 0.0 | 0.00 | 0.00 | 0.00 | 87 | 1018.0 |
| 20260504014802 | 41 | 270 | 9.0 | 0.0 | 0.00 | 0.00 | 0.00 | 81 | 1018.0 |
| 20260504013307 | 41 | 270 | 9.0 | 0.0 | 0.00 | 0.00 | 0.00 | 81 | 1018.0 |
| 20260504011915 | 41 | 270 | 10.0 | 0.0 | 0.00 | 0.00 | 0.00 | 81 | 1018.0 |
| 20260504010302 | 41 | 270 | 10.0 | 0.0 | 0.00 | 0.00 | 0.00 | 81 | 1018.0 |
| 20260504004916 | 41 | 260 | 7.0 | 0.0 | 0.00 | 0.00 | 0.00 | 87 | 1018.0 |
| 20260504003301 | 41 | 260 | 7.0 | 0.0 | 0.00 | 0.00 | 0.00 | 87 | 1018.0 |
| 20260504001802 | 41 | 280 | 6.0 | 0.0 | 0.00 | 0.00 | 0.00 | 81 | 1018.0 |
| 20260504000302 | 41 | 280 | 6.0 | 0.0 | 0.00 | 0.00 | 0.00 | 81 | 1018.0 |
| 20260503234841 | 41 | 300 | 7.0 | 0.0 | 0.00 | 0.00 | 0.00 | 87 | 1018.0 |
| 20260503233302 | 41 | 300 | 7.0 | 0.0 | 0.00 | 0.00 | 0.00 | 87 | 1018.0 |
| 20260503231805 | 43 | 300 | 8.0 | 0.0 | 0.00 | 0.00 | 0.00 | 81 | 1018.0 |
| 20260503230314 | 43 | 300 | 8.0 | 0.0 | 0.00 | 0.00 | 0.00 | 81 | 1018.0 |
| 20260503224802 | 43 | 300 | 8.0 | 0.0 | 0.00 | 0.00 | 0.00 | 81 | 1018.0 |
| 20260503223314 | 43 | 300 | 8.0 | 0.0 | 0.00 | 0.00 | 0.00 | 81 | 1018.0 |
| 20260503221818 | 43 | 290 | 8.0 | 0.0 | 0.00 | 0.00 | 0.00 | 81 | 1019.0 |
| 20260503220344 | 43 | 290 | 8.0 | 0.0 | 0.00 | 0.00 | 0.00 | 81 | 1019.0 |
| 20260503214809 | 43 | 270 | 8.0 | 0.0 | 0.00 | 0.00 | 0.00 | 81 | 1019.0 |
| 20260503213302 | 43 | 270 | 8.0 | 0.0 | 0.00 | 0.00 | 0.00 | 81 | 1019.0 |
| 20260503211802 | 45 | 280 | 7.0 | 0.0 | 0.00 | 0.00 | 0.00 | 76 | 1019.0 |
| 20260503210302 | 45 | 280 | 7.0 | 0.0 | 0.00 | 0.00 | 0.00 | 76 | 1019.0 |
| 20260503204809 | 45 | 280 | 8.0 | 0.0 | 0.00 | 0.00 | 0.00 | 76 | 1019.0 |
| 20260503203415 | 45 | 280 | 8.0 | 0.0 | 0.00 | 0.00 | 0.00 | 76 | 1019.0 |
| 20260503201802 | 46 | 270 | 7.0 | 0.0 | 0.00 | 0.00 | 0.00 | 66 | 1019.0 |
| 20260503200311 | 46 | 270 | 7.0 | 0.0 | 0.00 | 0.00 | 0.00 | 66 | 1019.0 |
| 20260503194826 | 48 | 270 | 5.0 | 0.0 | 0.00 | 0.00 | 0.00 | 62 | 1020.0 |
| 20260503193416 | 48 | 270 | 5.0 | 0.0 | 0.00 | 0.00 | 0.00 | 62 | 1020.0 |
| 20260503191802 | 50 | 0 | 0.0 | 0.0 | 0.00 | 0.00 | 0.00 | 50 | 1019.0 |
| 20260503190302 | 50 | 0 | 0.0 | 0.0 | 0.00 | 0.00 | 0.00 | 50 | 1019.0 |
| 20260503184915 | 52 | 0 | 0.0 | 0.0 | 0.00 | 0.00 | 0.00 | 50 | 1019.0 |
| 20260503183301 | 52 | 0 | 0.0 | 0.0 | 0.00 | 0.00 | 0.00 | 50 | 1019.0 |
| 20260503181802 | 52 | 140 | 2.0 | 0.0 | 0.00 | 0.00 | 0.00 | 47 | 1019.0 |
| 20260503180301 | 52 | 140 | 2.0 | 0.0 | 0.00 | 0.00 | 0.00 | 47 | 1019.0 |
| 20260503174822 | 52 | 110 | 3.0 | 0.0 | 0.00 | 0.00 | 0.00 | 50 | 1019.0 |
| 20260503173326 | 52 | 110 | 3.0 | 0.0 | 0.00 | 0.00 | 0.00 | 50 | 1019.0 |
| 20260503171802 | 55 | 100 | 2.0 | 0.0 | 0.00 | 0.00 | 0.00 | 47 | 1019.0 |
| 20260503170302 | 55 | 100 | 2.0 | 0.0 | 0.00 | 0.00 | 0.00 | 47 | 1019.0 |
| 20260503150302 | 61 | 230 | 3.0 | 0.0 | 0.00 | 0.00 | 0.00 | 34 | 1019.0 |
| 20260503140309 | 59 | 70 | 9.0 | 0.0 | 0.00 | 0.00 | 0.00 | 31 | 1020.0 |
| 20260503130302 | 59 | 110 | 6.0 | 0.0 | 0.00 | 0.00 | 0.00 | 31 | 1021.0 |